McMinnville, OR

5:36 AM PDT on October 20, 2019 (GMT -0700)
McMinnville Municipal

Weather History for KMMV - August, 2019

Change the Weather History Date:

Wednesday, August 21, 2019

  Actual Average Record
Temperature  
Mean Temperature 62 °F 66 °F  
Max Temperature 72 °F 82 °F 99 °F (1951)
Min Temperature 51 °F 50 °F 32 °F (1899)
Degree Days  
Heating Degree Days 3 1  
Month to date heating degree days 7 21  
Since 1 June heating degree days 116  
Since 1 July heating degree days 18 65  
Cooling Degree Days 0 2  
Month to date cooling degree days 82 61  
Year to date cooling degree days 198 161  
Since 1 June cooling degree days 195  
Growing Degree Days 12 (Base 50)    
Moisture  
Dew Point 58 °F    
Average Humidity 78    
Maximum Humidity 93    
Minimum Humidity 63    
Precipitation  
Precipitation T in 0.02 in 1.69 in (1978)
Month to date precipitation 0.01 0.33  
Year to date precipitation 17.16 22.08  
Sea Level Pressure  
Sea Level Pressure 30.00 in    
Wind  
Wind Speed 4 mph (SW)    
Max Wind Speed 18 mph    
Max Gust Speed 21 mph    
Visibility 9 miles    
Events Rain    
T = Trace of Precipitation, MM = Missing Value Source: NWS Daily Summary

Daily Weather History Graph

Daily Weather History Graph

Search for Another Location

Airport or City:

Astronomy

Aug. 21, 2019 Rise Set
Actual Time 6:20 AM PDT 8:09 PM PDT
Civil Twilight 5:49 AM PDT 8:40 PM PDT
Nautical Twilight 5:11 AM PDT 9:19 PM PDT
Astronomical Twilight 4:29 AM PDT 10:00 PM PDT
Moon 11:13 PM PDT (8/21) 12:17 PM PDT (8/21)
Length of Visible Light 14h 51m
Length of Day
13h 48m
Waning Gibbous, 68% of the Moon is Illuminated
Aug 21
Waning Gibbous
Aug 23
Last Quarter
Aug 30
New
Sep 5
First Quarter
Sep 13
Full

Hourly Weather History & Observations

Time (PDT) Temp. Dew Point Humidity Pressure Visibility Wind Dir Wind Speed Gust Speed Precip Events Conditions
12:53 AM 55.9 °F 51.1 °F 84% 30.03 in 10.0 mi Calm Calm - N/A   Clear
1:53 AM 54.0 °F 51.1 °F 90% 30.03 in 10.0 mi WNW 3.5 mph - N/A   Clear
2:53 AM 54.0 °F 51.1 °F 90% 30.02 in 10.0 mi Calm Calm - N/A   Clear
3:53 AM 54.0 °F 51.1 °F 90% 30.02 in 10.0 mi North 3.5 mph - N/A   Clear
4:53 AM 53.1 °F 51.1 °F 93% 30.02 in 10.0 mi WNW 4.6 mph - N/A   Clear
5:53 AM 55.0 °F 51.1 °F 86% 30.02 in 10.0 mi Calm Calm - N/A   Overcast
6:53 AM 55.9 °F 51.1 °F 84% 30.02 in 10.0 mi Calm Calm - N/A   Mostly Cloudy
7:53 AM 59.0 °F 53.1 °F 81% 30.03 in 10.0 mi Calm Calm - N/A   Overcast
8:53 AM 60.1 °F 53.1 °F 78% 30.02 in 10.0 mi Calm Calm - N/A   Overcast
9:53 AM 64.0 °F 54.0 °F 70% 30.01 in 10.0 mi Calm Calm - N/A   Mostly Cloudy
10:53 AM 66.9 °F 55.0 °F 66% 30.01 in 10.0 mi Calm Calm - N/A   Overcast
11:53 AM 68.0 °F 55.0 °F 63% 30.01 in 10.0 mi Calm Calm - N/A   Mostly Cloudy
12:38 PM 68.0 °F 55.9 °F 65% 30.01 in 10.0 mi Variable 3.5 mph - N/A   Overcast
12:53 PM 68.0 °F 57.0 °F 68% 30.01 in 10.0 mi SSE 6.9 mph - N/A   Overcast
1:48 PM 69.8 °F 57.2 °F 64% 30.01 in 10.0 mi South 6.9 mph - N/A   Overcast
1:53 PM 69.1 °F 57.9 °F 68% 30.01 in 10.0 mi SSW 8.1 mph - N/A   Overcast
2:53 PM 70.0 °F 60.1 °F 71% 29.99 in 10.0 mi SSE 15.0 mph - 0.00 in   Overcast
3:53 PM 70.0 °F 59.0 °F 68% 29.98 in 10.0 mi South 10.4 mph - N/A   Overcast
4:53 PM 71.1 °F 60.1 °F 68% 29.97 in 10.0 mi SSW 8.1 mph - N/A   Overcast
5:19 PM 68.0 °F 63.0 °F 84% 29.98 in 2.5 mi SSW 10.4 mph - N/A   Haze
5:26 PM 66.9 °F 64.0 °F 90% 29.98 in 2.5 mi SW 11.5 mph - 0.00 in Rain Light Rain
5:41 PM 66.0 °F 64.0 °F 93% 29.98 in 4.0 mi SSW 10.4 mph - 0.00 in   Overcast
5:53 PM 66.0 °F 64.0 °F 93% 29.98 in 8.0 mi South 10.4 mph - 0.00 in   Overcast
6:53 PM 66.0 °F 63.0 °F 90% 29.99 in 10.0 mi SSW 8.1 mph - N/A   Overcast
7:13 PM 66.0 °F 64.0 °F 93% 29.99 in 1.8 mi SW 6.9 mph - 0.00 in Rain Rain
7:21 PM 66.0 °F 64.0 °F 93% 29.99 in 2.0 mi SSW 6.9 mph - 0.00 in Rain Light Rain
7:30 PM 66.0 °F 64.0 °F 93% 29.99 in 6.0 mi SSW 6.9 mph - 0.00 in Rain Light Rain
7:49 PM 64.4 °F 62.6 °F 94% 29.99 in 10.0 mi SW 6.9 mph - 0.00 in   Overcast
7:53 PM 64.9 °F 63.0 °F 93% 29.99 in 10.0 mi SW 6.9 mph - 0.00 in   Overcast
8:07 PM 64.9 °F 62.1 °F 90% 30.00 in 10.0 mi WSW 8.1 mph - N/A   Overcast
8:53 PM 64.0 °F 61.0 °F 90% 30.00 in 10.0 mi SW 8.1 mph - N/A   Overcast
9:53 PM 63.0 °F 60.1 °F 90% 30.01 in 10.0 mi WSW 6.9 mph - N/A   Overcast
10:09 PM 63.0 °F 60.1 °F 90% 30.02 in 10.0 mi WSW 8.1 mph - N/A   Overcast
10:31 PM 63.0 °F 60.1 °F 90% 30.01 in 10.0 mi West 6.9 mph - 0.00 in Rain Light Rain
10:41 PM 63.0 °F 60.1 °F 90% 30.01 in 10.0 mi Variable 3.5 mph - 0.00 in Rain Light Rain
10:53 PM 63.0 °F 60.1 °F 90% 30.01 in 10.0 mi WSW 3.5 mph - 0.00 in   Overcast
11:12 PM 62.1 °F 60.1 °F 93% 30.02 in 10.0 mi WSW 4.6 mph - N/A   Overcast
11:53 PM 62.1 °F 59.0 °F 90% 30.03 in 10.0 mi Calm Calm - N/A   Overcast